Temperature
22 21 20 20 20 21 23 25 26 25 25 25 25 24 23 22 22 20 20 20 21 21 20 20 20 20 20 20 20 20 20 20 20 20 20 19 19 19 19 19 19 19 19 19 19 19 19 19 19
22 21 20 20 21 22 24 25 25 26 26 25 25 24 23 22 21 20 20 20 21 21 20 20 20 20 20 20 20 20 20 20 20 20 20 19 19 19 19 19 19 19 19 19 19 19 19 19 19
22 21 20 20 22 23 25 26 26 27 26 26 25 24 23 22 21 21 21 21 21 21 20 20 20 20 20 20 20 20 20 20 20 20 20 19 19 19 19 19 19 19 19 19 19 19 19 19 19
22 21 21 21 23 25 26 26 27 27 26 25 24 23 23 22 22 21 21 21 21 21 20 20 20 20 20 20 20 20 20 20 20 20 19 19 19 19 19 19 19 19 19 19 19 19 19 19 19
22 22 22 23 25 26 27 27 27 26 26 25 24 22 22 22 22 21 21 21 21 21 20 20 20 20 20 20 20 20 20 20 20 20 19 19 19 19 19 19 19 19 19 19 19 19 19 19 19
22 22 22 24 26 27 27 27 27 26 25 24 23 22 22 22 21 21 21 21 21 21 20 20 20 20 20 20 20 20 20 20 20 20 20 19 19 19 19 19 19 19 19 19 19 19 19 19 19
23 22 24 25 26 27 27 28 27 26 25 24 23 22 21 21 21 21 21 21 21 21 21 20 20 20 20 20 20 20 20 20 20 20 19 19 19 19 19 19 19 19 19 19 19 19 19 19 19
25 22 24 25 26 27 27 28 27 26 25 24 24 22 21 21 21 21 21 21 20 20 20 20 20 20 20 20 20 20 20 19 19 19 19 19 19 19 19 19 19 19 19 19 19 19 19 19 19
26 23 24 26 27 27 27 27 27 26 25 25 24 23 22 22 21 21 21 20 20 20 20 20 20 20 20 20 20 20 20 19 19 19 19 19 19 19 19 19 19 19 19 19 19 19 19 18 18
25 23 25 27 28 27 28 27 27 26 25 24 23 23 22 22 21 21 21 20 20 20 20 20 20 20 20 20 20 20 19 19 19 19 19 19 19 19 19 19 19 19 19 19 19 18 18 18 18
26 25 27 28 29 29 28 27 27 25 24 24 23 22 22 21 21 21 21 21 20 20 20 20 20 20 20 20 20 20 19 19 19 19 19 19 19 19 19 19 19 19 19 18 18 18 18 18 18
27 28 29 29 29 29 28 27 27 25 25 24 24 23 22 22 21 21 21 21 20 20 20 20 20 20 20 20 20 20 19 19 19 19 19 19 19 19 19 19 19 19 18 18 18 18 18 18 18
28 28 29 29 29 29 28 27 26 25 25 24 23 23 22 22 21 21 21 21 21 20 20 20 20 20 20 20 19 19 19 19 19 19 19 19 19 19 19 19 19 19 18 18 18 18 18 18 18
28 29 29 29 29 29 27 27 26 25 24 23 23 22 22 22 21 21 21 21 21 20 20 20 20 20 19 19 19 19 19 19 19 19 19 19 19 19 19 19 18 18 18 18 18 18 18 18 18
29 27 28 28 28 28 27 26 25 25 24 23 23 22 22 22 22 21 22 21 21 21 20 20 20 19 19 19 19 19 19 19 19 19 19 19 19 19 19 19 19 18 18 18 18 18 18 18 18
27 26 26 28 28 28 26 24 25 25 24 23 23 22 22 22 22 22 22 21 21 21 20 20 20 19 19 19 19 19 19 19 19 19 19 19 19 19 19 19 18 18 18 18 18 18 18 18 18
26 25 26 28 28 28 26 25 25 25 24 23 23 22 22 22 22 22 21 21 21 21 20 20 20 20 19 19 19 19 19 19 19 19 19 19 19 19 19 19 18 18 18 18 18 18 18 18 18
25 26 26 27 28 28 26 25 25 25 24 23 23 22 22 22 22 22 22 21 21 21 21 20 20 20 20 19 19 19 19 19 19 19 19 19 19 19 19 18 18 18 18 18 18 18 18 18 18
27 27 26 27 28 27 26 25 25 25 24 24 23 22 22 22 22 22 22 21 21 21 21 20 20 20 20 20 19 19 19 19 19 19 19 19 19 19 19 18 18 18 18 18 18 18 18 18 18
27 26 26 27 28 27 25 25 25 25 25 24 23 23 22 22 22 21 21 21 21 21 21 20 20 20 20 20 20 19 19 19 19 19 19 19 19 19 19 19 18 18 18 18 18 18 18 18 18
27 26 27 27 27 27 26 25 25 25 25 25 24 23 23 22 22 21 21 21 21 21 21 20 20 20 20 20 19 19 19 19 19 19 19 19 19 19 19 19 18 18 18 18 18 18 18 18 18
27 28 28 28 26 24 25 23 23 24 24 24 24 23 23 23 22 22 22 21 21 21 21 21 20 20 20 20 20 19 19 19 19 19 19 19 19 19 19 19 18 18 18 18 18 18 18 18 18
28 29 28 27 25 24 24 23 23 23 23 23 24 24 23 23 23 22 22 22 21 21 21 21 20 20 20 20 20 19 19 19 19 19 19 19 18 18 18 19 18 18 18 18 18 18 18 18 18
29 28 26 23 22 23 24 23 22 22 23 24 24 24 23 23 23 22 22 22 21 21 21 20 20 20 20 20 19 19 19 19 19 19 19 18 18 18 18 18 18 18 18 18 18 18 18 18 18
27 24 23 23 22 22 23 23 22 24 24 24 24 24 23 23 23 22 22 21 21 21 21 20 20 20 20 20 19 19 19 19 19 19 19 19 19 18 18 18 18 18 18 18 18 18 18 18 18
27 24 23 23 23 22 23 23 23 25 25 25 24 24 23 23 23 23 22 22 21 21 21 21 20 20 20 20 19 19 19 19 19 19 19 19 19 18 18 18 18 18 18 18 18 18 18 18 18
27 25 23 22 22 22 22 23 24 24 24 23 24 23 23 23 23 22 22 21 21 21 21 21 21 20 20 20 19 19 19 19 19 19 18 18 18 18 18 18 18 18 18 18 18 18 18 18 18
27 25 22 22 22 22 23 23 22 23 22 22 22 22 22 22 22 22 22 21 21 21 21 20 20 20 20 19 19 19 19 19 19 19 19 18 18 18 18 18 18 18 18 18 18 18 17 17 17
27 26 23 20 21 21 22 22 24 23 22 22 22 22 22 22 22 22 21 21 21 21 20 20 20 20 20 20 19 19 19 19 19 18 18 18 18 18 18 18 18 18 18 17 17 17 17 17 17
27 25 22 22 22 20 20 22 24 23 22 22 22 22 22 22 22 22 21 21 21 20 20 20 20 20 20 20 19 19 19 19 18 18 18 18 18 18 18 18 17 17 17 17 17 17 17 17 17
Wind_Speed
10 8 3 1 1 4 4 4 6 7 6 8 11 11 9 7 5 6 4 9 12 11 12 16 18 18 18 18 18 19 19 20 19 20 20 20 20 20 19 18 18 17 16 15 15 14 14 14 13
7 5 2 1 4 4 3 5 8 8 8 11 11 11 9 8 7 9 6 10 12 12 13 15 18 18 18 18 18 19 19 19 19 19 19 19 19 19 18 17 17 16 15 14 14 13 13 13 12
5 4 1 2 2 4 4 5 8 9 9 8 6 7 6 6 8 7 8 13 11 10 12 16 18 18 18 17 17 18 19 19 19 18 18 18 18 17 17 16 16 15 14 14 13 12 12 11 11
2 1 1 2 2 3 6 6 10 10 8 9 8 6 5 5 6 9 13 13 12 10 12 16 19 18 18 17 17 17 18 18 18 18 17 17 17 16 16 16 15 14 13 13 12 11 11 10 9
1 2 2 2 3 4 5 7 10 9 5 9 11 8 5 5 13 16 14 12 12 10 11 15 18 18 18 17 17 17 17 18 17 17 17 16 16 15 15 15 14 13 13 12 11 10 9 9 8
0 1 2 2 4 5 5 7 10 13 12 11 10 8 4 7 13 13 12 11 12 11 10 14 18 18 18 17 16 16 17 17 17 17 16 16 15 14 15 14 14 13 12 10 10 9 8 7 6
1 1 1 1 4 6 6 6 9 10 10 7 8 6 4 6 10 12 11 11 10 10 9 10 13 16 17 17 16 16 16 16 16 16 16 15 15 14 14 13 13 12 11 10 9 8 7 7 6
3 1 1 1 5 5 5 5 7 10 8 9 7 7 7 8 11 12 11 10 9 8 8 7 10 12 13 14 15 15 15 14 14 15 15 14 14 13 13 12 12 11 11 10 9 8 8 7 6
2 2 1 2 5 5 6 8 6 7 9 5 5 7 11 14 14 14 11 9 9 9 6 7 7 8 10 11 13 14 14 13 13 12 13 12 9 10 10 11 11 11 11 10 9 9 8 7 6
4 2 4 4 6 7 8 9 6 6 9 8 10 12 15 15 14 14 13 11 10 9 7 6 7 7 8 9 10 9 9 10 10 9 9 9 8 9 9 11 12 11 11 10 10 9 8 6 5
5 5 3 3 5 8 8 7 5 9 6 9 15 15 15 14 13 12 11 10 10 9 8 7 6 6 6 6 7 6 7 7 8 8 9 8 7 7 7 7 8 8 8 7 7 6 5 5 5
2 3 2 3 4 7 7 7 6 6 8 13 16 16 14 13 12 11 11 10 9 9 8 7 6 6 6 6 5 6 5 5 6 8 9 7 4 4 5 5 6 6 5 5 5 4 4 5 5
0 1 1 3 4 6 9 8 8 8 13 15 16 15 14 13 11 10 10 9 9 8 7 7 6 6 6 6 5 5 5 5 7 8 9 8 5 4 5 5 5 5 5 5 4 3 3 3 3
2 1 1 2 4 5 10 8 7 9 15 16 15 13 12 12 12 10 10 9 8 7 7 6 6 6 6 5 4 5 6 6 6 6 8 9 7 5 4 4 3 4 5 5 4 3 2 2 2
2 4 3 0 2 3 9 6 7 13 15 15 14 12 12 11 12 12 11 10 9 8 6 6 6 5 5 5 5 5 5 6 5 5 8 8 7 6 5 4 3 4 5 4 3 3 1 1 2
5 4 2 3 2 3 7 5 7 12 14 14 13 12 11 9 10 10 11 10 9 8 7 6 7 5 5 4 4 4 4 5 5 6 7 8 8 7 5 3 3 4 3 3 2 2 1 1 1
3 1 3 4 2 3 5 5 7 10 14 12 12 12 11 9 8 9 10 10 9 8 7 6 5 5 4 4 4 4 4 4 4 5 6 7 7 7 5 4 3 4 3 2 3 2 2 2 2
4 3 2 3 2 4 5 6 9 10 13 13 12 12 11 11 9 10 10 10 9 8 6 6 5 4 3 3 2 2 2 2 3 4 5 6 6 7 6 4 4 4 3 3 3 3 2 2 2
4 3 4 5 3 3 5 6 10 10 11 12 12 12 12 11 9 10 10 10 9 7 6 5 5 4 3 2 2 2 2 2 3 4 6 7 7 7 5 4 3 3 4 4 4 2 2 2 1
3 3 4 4 3 3 5 5 8 11 13 14 15 14 13 11 10 10 10 9 9 8 7 6 5 5 4 3 2 2 2 2 3 3 4 6 7 7 6 5 4 4 4 4 4 3 2 2 2
5 5 5 3 2 3 4 1 4 6 6 9 11 12 13 15 14 13 12 11 10 9 8 7 6 5 4 3 2 2 1 0 1 2 2 4 6 6 6 5 5 5 5 4 5 4 4 4 3
6 7 4 4 2 2 3 2 6 5 5 8 10 10 12 13 13 12 12 12 11 10 9 7 6 5 4 4 4 4 3 3 3 3 2 3 5 6 6 6 5 5 4 4 5 5 4 4 3
7 5 3 2 1 2 2 3 6 3 5 8 10 12 13 13 14 14 14 13 12 11 9 7 6 5 4 4 4 4 2 2 1 1 1 2 3 4 5 5 5 5 4 5 5 4 4 4 4
2 3 6 6 5 2 4 3 5 5 9 9 9 10 11 12 12 11 11 10 10 10 8 8 7 6 5 5 4 4 4 3 2 1 1 1 1 2 2 3 4 4 4 5 5 5 5 5 4
3 5 4 5 4 4 3 2 7 7 7 8 9 9 10 10 11 10 11 10 10 11 10 9 8 7 5 5 4 4 4 4 3 2 2 2 1 2 2 2 3 3 4 5 5 4 5 5 5
4 9 7 5 5 4 3 3 6 4 4 7 8 8 8 9 9 10 12 12 12 12 11 10 9 7 6 5 4 3 3 3 2 2 2 2 3 3 3 2 3 3 3 3 4 4 4 4 5
4 4 9 7 2 0 3 3 4 3 4 6 6 8 9 10 10 9 9 9 10 11 11 11 10 7 6 5 4 3 3 3 2 2 2 2 2 2 2 3 3 2 3 3 3 3 4 4 4
7 6 6 5 4 3 4 3 4 4 5 6 7 8 8 8 8 8 8 8 8 9 9 9 8 8 7 7 6 5 4 3 3 2 2 2 2 2 2 2 3 3 3 3 2 2 3 3 3
0 2 4 5 6 6 4 6 6 9 10 10 8 8 9 9 9 8 7 7 7 7 8 8 8 7 7 6 5 5 4 3 3 3 3 3 3 3 3 3 3 3 3 3 3 3 3 3 3
5 6 7 5 4 5 5 7 5 8 9 9 8 7 8 8 7 6 6 6 7 7 7 7 8 8 7 6 5 5 4 3 4 4 4 4 3 3 4 3 3 3 3 3 4 4 4 4 4
Wind_Direction
173 167 167 211 31 46 63 78 95 79 63 66 77 83 80 68 92 123 144 138 130 136 137 131 128 127 126 123 122 123 123 122 121 121 122 124 126 126 127 129 129 129 128 127 126 125 123 121 121
165 166 193 343 58 62 54 88 93 98 119 106 84 82 77 70 85 114 125 136 133 136 139 136 132 130 129 128 126 126 126 125 124 124 124 126 128 129 131 132 131 131 130 130 130 128 127 125 123
175 191 246 25 91 124 110 98 107 103 105 98 85 64 68 98 107 122 140 137 132 134 140 139 135 133 133 131 130 130 131 130 129 129 129 129 130 132 133 134 135 135 134 134 134 133 133 131 129
170 161 7 36 104 135 128 129 120 108 82 78 91 70 55 87 115 130 138 136 132 134 141 143 138 137 136 135 133 133 135 133 133 133 134 133 133 136 137 139 139 138 138 138 138 138 139 139 138
179 103 22 24 93 107 116 126 116 107 96 91 93 93 74 77 112 128 136 136 134 135 141 145 141 139 139 139 138 138 138 137 137 138 138 139 140 142 142 143 143 142 143 143 144 146 146 147 149
117 83 52 75 95 98 102 109 104 100 106 104 101 103 92 116 120 130 134 138 137 139 140 145 145 144 143 142 142 142 142 142 142 142 143 145 146 148 149 149 149 149 150 150 153 156 159 161 161
155 93 270 139 100 105 111 102 99 110 116 114 120 103 120 130 132 131 128 132 135 136 136 139 146 148 147 146 146 146 147 147 147 147 148 150 153 155 156 158 157 156 157 159 164 170 172 177 182
175 96 323 131 112 112 118 94 103 111 107 122 119 126 151 154 132 123 120 124 127 128 134 135 143 146 147 150 149 149 149 150 150 151 154 156 160 162 165 167 167 168 169 171 177 182 187 196 205
142 80 271 179 135 138 126 100 92 89 105 106 93 121 143 137 128 122 120 120 126 130 133 138 140 144 147 149 152 153 153 155 155 156 159 162 164 169 173 176 178 181 183 185 188 193 198 207 220
145 163 217 186 147 140 131 120 123 102 95 90 93 109 127 128 128 129 132 137 140 143 145 147 149 148 149 151 149 150 153 156 156 158 163 165 170 179 180 187 190 191 194 197 200 205 213 217 227
168 193 209 139 145 131 126 127 112 120 114 134 132 135 134 129 130 132 135 142 148 150 148 151 153 152 149 142 146 152 155 156 162 165 169 170 176 189 190 193 200 201 203 208 214 217 222 221 227
169 220 149 143 138 122 124 130 113 119 139 142 137 136 134 132 132 136 138 143 144 145 151 152 152 153 152 148 149 153 155 162 173 180 179 175 176 182 185 192 200 203 208 211 219 219 223 228 227
133 108 109 145 123 122 116 120 116 115 125 130 130 131 133 132 131 133 137 138 140 148 153 158 157 157 157 153 159 156 165 174 178 179 182 180 175 177 179 191 194 198 204 204 202 201 203 209 227
269 31 73 104 106 115 114 115 105 129 132 130 133 135 138 140 140 135 134 136 141 144 148 149 145 150 152 156 161 164 174 178 178 177 183 183 182 178 176 179 184 196 204 206 203 196 192 201 213
352 23 359 181 101 137 112 85 124 144 137 134 138 140 143 147 148 148 150 149 151 148 147 152 149 140 143 154 163 162 174 173 173 182 183 181 183 178 172 174 184 199 203 202 194 196 186 196 212
2 22 348 277 145 192 116 134 156 149 139 140 144 145 145 148 150 153 150 149 148 143 144 156 154 143 144 151 161 159 169 170 179 185 186 188 188 184 175 171 187 204 198 185 177 187 179 219 225
1 310 276 293 251 176 122 148 165 156 143 147 149 150 150 148 148 153 154 152 150 150 150 153 146 151 154 150 152 160 165 175 181 184 188 190 189 189 186 183 196 201 191 187 194 179 180 199 227
256 263 283 281 286 126 118 147 162 162 152 157 157 155 154 161 163 158 157 155 152 153 153 156 152 156 152 140 130 138 151 181 183 189 196 193 194 192 189 189 198 193 182 196 196 185 187 197 212
225 248 277 275 254 127 132 150 168 169 165 165 166 166 163 166 161 155 155 156 152 151 154 163 159 164 152 151 159 162 185 196 193 203 200 198 198 196 193 191 192 192 191 200 196 187 194 214 189
225 247 269 283 262 137 152 172 187 182 182 179 173 173 170 162 156 161 160 158 160 163 165 169 170 169 171 178 182 185 184 194 196 200 198 201 198 197 198 191 196 193 192 201 201 187 198 228 195
256 228 228 220 321 45 104 39 212 206 189 181 176 175 172 168 166 169 168 169 167 170 172 172 175 172 176 170 144 135 104 57 167 195 202 211 203 202 203 197 191 194 193 200 206 198 197 218 235
252 242 212 178 118 277 128 196 255 213 198 189 182 178 179 174 169 170 171 174 173 176 176 172 173 172 174 165 150 151 168 187 204 196 206 216 207 207 209 202 195 195 191 193 205 201 196 193 229
233 231 184 170 118 3 6 134 271 197 200 206 193 186 184 178 174 172 176 177 174 175 175 172 170 170 173 170 165 160 166 180 173 154 180 222 221 216 212 197 191 193 196 198 202 201 196 194 208
225 39 29 47 68 1 261 171 261 216 208 203 193 186 182 177 173 173 174 168 169 172 170 168 168 174 176 173 172 172 171 163 149 165 189 230 240 225 214 198 198 201 202 201 202 204 206 212 216
86 85 26 1 9 258 276 154 245 234 199 179 171 173 169 168 170 170 169 170 172 173 173 172 171 178 179 176 181 183 184 170 168 184 192 203 216 215 230 215 201 204 207 203 200 206 214 217 221
193 141 159 196 220 268 319 228 258 249 173 157 149 152 152 157 168 176 179 179 178 176 173 171 173 176 176 178 186 182 180 178 184 187 191 199 214 220 224 215 213 216 210 205 203 213 227 224 227
178 183 172 151 172 208 276 281 331 34 120 141 143 142 152 157 164 167 174 178 176 174 173 173 169 171 176 180 177 182 185 184 189 197 202 219 232 228 227 220 225 227 218 211 201 217 234 230 230
168 161 97 118 158 235 275 254 222 207 181 157 150 149 152 148 153 163 168 173 176 174 172 169 167 172 177 184 188 191 198 196 192 186 209 228 241 245 250 244 228 226 219 215 205 224 236 229 240
176 119 119 130 153 163 224 261 219 194 180 166 164 156 153 152 156 162 168 173 170 164 166 171 174 172 180 187 188 189 196 199 195 204 222 229 235 235 241 241 230 227 229 224 218 228 228 231 248
172 175 149 156 227 171 174 258 254 180 166 154 154 152 150 150 150 152 156 154 156 161 165 173 180 182 188 188 186 195 196 195 200 219 232 232 232 231 232 236 234 237 238 230 220 229 235 231 242
Height
1505 1505 1505 1506 1507 1512 1511 1502 1494 1494 1494 1494 1494 1495 1498 1502 1506 1514 1512 1511 1512 1512 1512 1512 1513 1515 1517 1518 1519 1521 1522 1524 1525 1527 1529 1531 1533 1535 1537 1538 1540 1541 1543 1545 1546 1547 1548 1550 1551
1505 1505 1507 1507 1512 1522 1514 1500 1497 1495 1495 1495 1496 1498 1499 1504 1506 1508 1510 1512 1513 1513 1514 1515 1516 1517 1518 1519 1521 1522 1523 1525 1527 1529 1531 1533 1535 1536 1538 1540 1542 1543 1544 1546 1547 1549 1550 1551 1552
1505 1505 1508 1508 1513 1518 1511 1499 1496 1495 1495 1494 1498 1500 1502 1506 1508 1509 1511 1513 1514 1515 1516 1517 1518 1519 1520 1521 1522 1523 1525 1527 1529 1531 1533 1534 1536 1538 1540 1541 1543 1544 1546 1547 1549 1550 1551 1552 1553
1506 1507 1508 1512 1512 1503 1499 1496 1494 1495 1497 1497 1499 1503 1506 1509 1509 1510 1512 1514 1515 1517 1518 1519 1520 1520 1521 1523 1524 1525 1527 1529 1530 1532 1534 1536 1537 1539 1541 1542 1544 1545 1547 1548 1550 1551 1552 1553 1554
1507 1508 1512 1514 1507 1499 1495 1494 1493 1495 1498 1500 1500 1506 1509 1511 1510 1511 1513 1515 1516 1517 1519 1520 1521 1522 1523 1524 1526 1527 1529 1530 1532 1534 1535 1537 1539 1540 1542 1544 1545 1547 1548 1549 1551 1552 1553 1554 1555
1508 1508 1517 1518 1507 1498 1496 1495 1495 1497 1501 1502 1503 1507 1511 1512 1512 1513 1514 1516 1517 1518 1520 1522 1523 1523 1524 1526 1527 1529 1530 1532 1533 1535 1536 1538 1540 1542 1543 1545 1546 1548 1549 1550 1551 1552 1554 1555 1556
1509 1510 1514 1510 1506 1501 1497 1495 1496 1498 1501 1503 1504 1507 1512 1513 1513 1514 1515 1517 1518 1520 1521 1522 1523 1525 1526 1527 1529 1530 1531 1532 1534 1536 1538 1539 1541 1542 1544 1545 1547 1548 1549 1550 1551 1552 1554 1555 1556
1507 1509 1511 1508 1506 1504 1497 1496 1498 1498 1501 1504 1504 1506 1510 1513 1514 1514 1516 1517 1519 1521 1522 1523 1525 1526 1527 1528 1529 1531 1532 1534 1535 1537 1538 1540 1542 1543 1545 1546 1547 1548 1549 1550 1551 1552 1554 1555 1556
1506 1513 1515 1507 1504 1502 1497 1497 1499 1500 1501 1503 1503 1504 1507 1512 1514 1515 1516 1519 1520 1522 1524 1525 1526 1527 1528 1529 1531 1532 1533 1535 1536 1537 1539 1541 1542 1544 1545 1546 1547 1548 1549 1550 1551 1552 1553 1555 1556
1504 1513 1506 1496 1495 1496 1496 1497 1499 1502 1503 1504 1506 1507 1510 1512 1514 1515 1517 1519 1521 1523 1524 1526 1527 1528 1529 1530 1531 1533 1534 1535 1537 1538 1539 1541 1543 1544 1545 1546 1547 1548 1549 1550 1551 1552 1553 1554 1555
1500 1503 1495 1493 1493 1494 1496 1498 1499 1501 1505 1505 1506 1508 1511 1513 1515 1516 1518 1520 1522 1524 1525 1527 1528 1529 1530 1531 1532 1533 1534 1536 1537 1538 1540 1541 1542 1544 1545 1546 1547 1548 1548 1549 1550 1551 1552 1553 1554
1498 1495 1493 1493 1493 1493 1495 1497 1500 1500 1503 1505 1506 1508 1511 1513 1515 1517 1519 1521 1523 1525 1526 1527 1528 1529 1531 1532 1532 1534 1535 1536 1537 1538 1540 1541 1542 1543 1544 1545 1546 1547 1548 1548 1549 1550 1551 1552 1553
1495 1495 1493 1493 1492 1493 1494 1497 1499 1502 1505 1507 1509 1511 1512 1515 1517 1519 1520 1522 1524 1525 1527 1528 1529 1530 1531 1532 1533 1533 1535 1536 1537 1538 1539 1540 1541 1542 1543 1544 1545 1546 1547 1547 1548 1549 1550 1550 1551
1495 1493 1493 1493 1493 1495 1496 1500 1501 1506 1506 1508 1510 1512 1514 1516 1518 1519 1520 1522 1524 1526 1527 1528 1529 1530 1531 1531 1532 1533 1535 1536 1537 1538 1539 1540 1541 1542 1542 1544 1545 1545 1546 1547 1547 1548 1549 1550 1551
1495 1496 1496 1495 1494 1496 1497 1505 1504 1506 1507 1509 1511 1513 1515 1516 1518 1518 1520 1521 1524 1525 1527 1528 1529 1530 1531 1532 1532 1533 1534 1536 1536 1538 1539 1540 1541 1542 1542 1543 1544 1545 1546 1546 1547 1548 1548 1549 1550
1498 1502 1508 1498 1495 1496 1501 1515 1507 1507 1507 1509 1512 1514 1515 1517 1518 1519 1521 1522 1524 1525 1526 1528 1529 1530 1531 1532 1532 1533 1534 1535 1536 1537 1539 1540 1540 1541 1542 1542 1543 1544 1545 1546 1546 1547 1548 1549 1549
1507 1514 1511 1502 1494 1495 1500 1511 1507 1507 1507 1509 1512 1514 1515 1517 1518 1520 1521 1522 1524 1525 1526 1528 1529 1530 1530 1531 1532 1533 1534 1535 1536 1537 1538 1539 1540 1540 1541 1542 1543 1544 1545 1545 1546 1547 1547 1548 1548
1516 1513 1510 1506 1497 1495 1502 1506 1505 1506 1507 1508 1511 1512 1514 1516 1517 1519 1520 1522 1524 1525 1527 1528 1529 1530 1531 1531 1532 1533 1534 1535 1536 1536 1537 1538 1539 1540 1540 1541 1542 1543 1543 1544 1545 1546 1546 1547 1547
1502 1506 1509 1502 1494 1497 1503 1505 1504 1505 1506 1507 1509 1510 1512 1514 1517 1518 1520 1521 1523 1525 1526 1527 1528 1529 1530 1531 1531 1532 1533 1534 1534 1535 1536 1537 1537 1538 1539 1540 1540 1541 1541 1542 1543 1544 1545 1546 1547
1499 1506 1507 1501 1493 1497 1503 1504 1502 1502 1502 1503 1505 1507 1510 1513 1516 1517 1519 1521 1522 1523 1524 1526 1527 1528 1529 1530 1531 1531 1532 1532 1533 1534 1535 1535 1536 1537 1538 1538 1539 1539 1540 1540 1542 1543 1544 1545 1545
1499 1503 1503 1504 1497 1496 1503 1511 1506 1502 1502 1504 1505 1506 1508 1510 1512 1515 1517 1519 1521 1522 1523 1525 1526 1527 1528 1529 1530 1530 1531 1531 1531 1532 1533 1534 1535 1535 1536 1536 1537 1537 1538 1539 1540 1541 1542 1542 1544
1502 1489 1491 1496 1506 1515 1509 1530 1513 1504 1503 1503 1504 1506 1507 1509 1511 1513 1515 1517 1519 1521 1523 1524 1525 1526 1527 1528 1528 1528 1528 1528 1529 1530 1531 1532 1533 1533 1534 1535 1535 1536 1536 1536 1537 1539 1540 1540 1541
1490 1483 1487 1492 1503 1513 1511 1524 1519 1505 1506 1502 1500 1502 1504 1506 1508 1510 1512 1514 1517 1519 1521 1523 1524 1525 1526 1527 1527 1527 1527 1528 1528 1529 1530 1531 1531 1531 1532 1532 1533 1533 1534 1534 1535 1536 1537 1538 1538
1480 1486 1492 1501 1513 1529 1517 1523 1523 1509 1501 1497 1497 1499 1502 1504 1506 1509 1511 1513 1515 1517 1519 1520 1522 1523 1524 1525 1526 1526 1527 1527 1527 1527 1528 1529 1529 1529 1529 1530 1530 1531 1532 1532 1533 1534 1535 1535 1535
1484 1505 1527 1531 1539 1535 1514 1518 1516 1494 1490 1491 1493 1496 1498 1502 1504 1506 1509 1511 1513 1515 1516 1518 1520 1521 1523 1524 1524 1525 1526 1526 1526 1526 1527 1527 1527 1527 1527 1528 1528 1528 1529 1530 1531 1531 1532 1532 1532
1487 1501 1528 1540 1542 1534 1517 1519 1504 1487 1487 1488 1490 1494 1497 1500 1502 1504 1506 1507 1509 1511 1513 1515 1517 1519 1521 1522 1522 1523 1524 1525 1525 1525 1526 1525 1525 1525 1525 1526 1526 1526 1527 1528 1528 1529 1529 1529 1529
1486 1495 1498 1518 1524 1533 1525 1511 1497 1487 1488 1489 1491 1493 1495 1497 1499 1502 1504 1506 1507 1509 1511 1513 1515 1517 1518 1520 1520 1521 1522 1522 1523 1523 1524 1524 1524 1523 1523 1524 1524 1524 1525 1525 1526 1526 1526 1526 1526
1475 1483 1503 1517 1533 1539 1527 1519 1512 1497 1493 1489 1489 1491 1493 1495 1497 1500 1502 1504 1506 1507 1509 1511 1513 1515 1516 1517 1518 1519 1520 1521 1521 1521 1522 1522 1522 1522 1521 1521 1522 1522 1522 1523 1523 1523 1523 1523 1523
1479 1485 1497 1512 1518 1533 1538 1523 1489 1488 1486 1487 1488 1489 1491 1493 1495 1498 1500 1502 1504 1506 1508 1510 1512 1513 1515 1515 1516 1517 1517 1518 1519 1519 1519 1519 1519 1519 1519 1519 1519 1519 1520 1520 1520 1519 1520 1520 1520
1473 1481 1493 1511 1514 1519 1526 1516 1479 1480 1481 1484 1486 1488 1490 1492 1495 1497 1499 1501 1503 1504 1506 1508 1510 1511 1512 1513 1514 1515 1515 1516 1516 1516 1517 1517 1517 1517 1517 1516 1516 1516 1516 1517 1516 1516 1516 1516 1516